CW8078 Weather Reports


time (UTC)temp
C
wind
direction
speed
KPH
gust
KPH
rain 1hr
cm
rain 24hr
cm
rain mn
cm
humidity
%
barometer
mb
20260509091802 12 124 0.0 0.0 0.00 1.32 0.00 95 1006.8
20260509091303 12 124 0.0 0.0 0.00 1.32 0.00 95 1006.7
20260509090803 12 124 0.0 0.0 0.00 1.32 0.00 95 1006.7
20260509090303 12 124 0.0 0.0 0.00 1.32 0.00 95 1006.6
20260509084803 12 139 0.0 0.0 0.00 1.32 0.00 95 1006.4
20260509084303 12 139 0.0 0.0 0.00 1.32 0.00 95 1006.5
20260509083802 12 139 0.0 0.0 0.00 1.32 0.00 95 1006.4
20260509083303 12 139 0.0 0.0 0.00 1.32 0.00 95 1006.3
20260509081803 12 139 0.0 0.0 0.00 1.32 0.00 95 1006.2
20260509081302 12 139 0.0 0.0 0.00 1.32 0.00 95 1006.1
20260509080803 12 139 0.0 0.0 0.00 1.32 0.00 95 1006.1
20260509074303 12 139 0.0 0.0 0.00 1.32 0.00 95 1006.2
20260509073803 12 139 0.0 0.0 0.00 1.32 0.00 95 1006.3
20260509073303 12 139 0.0 0.0 0.00 1.32 0.00 95 1006.3
20260509071803 12 139 0.0 0.0 0.00 1.32 0.00 95 1006.4
20260509070803 12 139 0.0 0.0 0.00 1.32 0.00 95 1006.4
20260509070303 12 139 0.0 0.0 0.00 1.32 0.00 95 1006.3
20260509064803 12 139 0.0 0.0 0.00 1.32 0.00 95 1006.3
20260509064303 12 139 0.0 0.0 0.00 1.32 0.00 94 1006.3
20260509063303 12 139 0.0 0.0 0.00 1.32 0.00 94 1006.4
20260509061804 12 139 0.0 0.0 0.00 1.32 0.00 94 1006.5
20260509061303 12 139 0.0 0.0 0.00 1.32 0.00 94 1006.6
20260509060803 12 139 0.0 0.0 0.00 1.32 0.00 94 1006.6
20260509060303 12 139 0.0 0.0 0.00 1.32 0.00 94 1006.6
20260509054803 12 139 0.0 0.0 0.00 1.32 0.00 94 1006.6
20260509054303 12 139 0.0 0.0 0.00 1.32 0.00 94 1006.6
20260509053803 12 139 0.0 0.0 0.00 1.32 0.00 94 1006.6
20260509053303 12 139 0.0 0.0 0.00 1.32 0.00 94 1006.7
20260509051804 12 139 0.0 0.0 0.00 1.32 0.00 94 1006.7
20260509051303 12 139 0.0 0.0 0.00 1.32 0.00 94 1006.8
20260509050803 12 139 0.0 0.0 0.00 1.32 0.00 94 1006.7
20260509050303 12 139 0.0 0.0 0.00 1.32 0.00 94 1006.8
20260509044803 12 139 0.0 0.0 0.00 1.32 1.32 94 1006.8
20260509044303 12 139 0.0 0.0 0.00 1.32 1.32 94 1006.8
20260509043803 12 139 0.0 0.0 0.00 1.32 1.32 94 1006.8
20260509043303 12 139 0.0 0.0 0.00 1.32 1.32 94 1006.5
20260509041803 13 139 0.0 0.0 0.00 1.32 1.32 94 1006.5
20260509041303 13 139 0.0 0.0 0.00 1.32 1.32 94 1006.6
20260509040804 13 139 0.0 0.0 0.00 1.32 1.32 94 1006.6
20260509040303 13 139 0.0 0.0 0.00 1.32 1.32 94 1006.7
20260509034803 13 139 0.0 0.0 0.00 1.32 1.32 94 1006.8
20260509034303 13 139 0.0 0.0 0.03 1.32 1.32 94 1006.9
20260509033803 13 139 0.0 0.0 0.03 1.32 1.32 94 1006.9
20260509033303 13 139 0.0 0.0 0.03 1.32 1.32 94 1006.8
20260509031803 13 139 0.0 0.0 0.03 1.32 1.32 94 1006.7
20260509031303 13 139 0.0 0.0 0.03 1.32 1.32 94 1006.6
20260509030803 13 139 0.0 0.0 0.03 1.32 1.32 94 1006.6
20260509030303 13 139 0.0 0.0 0.03 1.32 1.32 94 1006.7
20260509024803 13 139 0.0 0.0 0.08 1.32 1.32 94 1006.8
20260509024303 13 139 0.0 0.0 0.10 1.30 1.30 94 1006.9
20260509023803 13 139 0.0 0.0 0.15 1.30 1.30 94 1006.9
20260509023303 13 139 0.0 0.0 0.20 1.30 1.30 93 1006.9
20260509021803 13 140 0.0 0.0 0.36 1.30 1.30 93 1007.0
20260509021303 13 140 0.0 0.0 0.41 1.30 1.30 93 1006.8
20260509020804 13 140 0.0 0.0 0.43 1.30 1.30 93 1006.9
20260509020303 13 140 0.0 0.0 0.48 1.30 1.30 93 1007.0
20260509013803 13 140 0.0 0.0 0.58 1.14 1.14 93 1007.2
20260509013304 13 140 0.0 0.0 0.61 1.09 1.09 93 1007.3
20260509011804 13 140 0.0 0.0 0.76 0.94 0.94 92 1007.0
20260509010803 13 140 0.0 0.0 0.79 0.86 0.86 92 1006.9
20260509010303 14 202 0.0 0.0 0.74 0.81 0.81 91 1007.3
20260509004803 15 277 0.0 0.0 0.58 0.66 0.66 92 1007.5
20260509004303 15 277 0.0 0.0 0.56 0.64 0.64 92 1007.7
20260509003803 15 277 0.0 0.0 0.48 0.56 0.56 92 1007.6
20260509001803 15 341 0.0 0.0 0.10 0.18 0.18 92 1007.4
20260509001303 15 342 0.0 0.0 0.03 0.10 0.10 92 1006.9
20260509000803 15 18 0.0 0.0 0.00 0.08 0.08 92 1006.5
20260509000303 15 20 0.0 0.0 0.00 0.08 0.08 91 1006.2
20260508233803 15 44 0.0 0.0 0.05 0.08 0.08 91 1006.0
20260508233304 15 5 0.0 1.6 0.05 0.08 0.08 90 1006.1
20260508231804 16 343 0.0 3.2 0.05 0.08 0.08 91 1006.4
20260508231304 16 6 0.0 4.8 0.05 0.08 0.08 91 1006.4
20260508230803 16 25 0.0 0.0 0.05 0.08 0.08 90 1006.5
20260508230303 16 352 0.0 0.0 0.05 0.08 0.08 90 1006.5
20260508224304 16 355 0.0 0.0 0.00 0.03 0.03 89 1007.0
20260508223803 16 350 0.0 0.0 0.03 0.03 0.03 89 1007.0
20260508223303 16 5 0.0 0.0 0.03 0.03 0.03 89 1007.0
20260508221803 16 5 0.0 0.0 0.03 0.03 0.03 89 1007.1
20260508220803 16 5 0.0 0.0 0.03 0.03 0.03 87 1007.0
20260508220303 16 5 0.0 0.0 0.03 0.03 0.03 87 1007.0
20260508214803 17 5 0.0 0.0 0.03 0.03 0.03 85 1007.1
20260508214303 17 5 0.0 0.0 0.03 0.03 0.03 85 1007.1
20260508213803 17 5 0.0 0.0 0.00 0.00 0.00 84 1007.0
20260508213303 17 5 0.0 0.0 0.00 0.00 0.00 82 1006.8
20260508211803 18 5 0.0 0.0 0.00 0.00 0.00 77 1006.5
20260508211303 19 5 0.0 0.0 0.00 0.00 0.00 73 1006.5
20260508210804 19 5 0.0 0.0 0.00 0.00 0.00 69 1007.1
20260508210304 20 5 0.0 0.0 0.00 0.00 0.00 67 1007.1
20260508204804 20 3 0.0 0.0 0.00 0.00 0.00 66 1007.3
20260508204304 20 0 0.0 0.0 0.00 0.00 0.00 66 1007.4
20260508203803 20 242 0.0 0.0 0.00 0.00 0.00 64 1007.6
20260508201803 20 308 0.0 0.0 0.00 0.00 0.00 62 1007.8
20260508201303 20 242 0.0 0.0 0.00 0.00 0.00 64 1007.9
20260508200804 20 202 0.0 0.0 0.00 0.00 0.00 67 1008.0
20260508200304 20 182 0.0 0.0 0.00 0.00 0.00 66 1008.0
20260508194304 20 208 0.0 0.0 0.00 0.00 0.00 67 1008.3
20260508193803 20 208 0.0 0.0 0.00 0.00 0.00 67 1008.2
20260508193303 19 208 0.0 0.0 0.00 0.00 0.00 64 1007.8
20260508191803 19 187 0.0 0.0 0.00 0.00 0.00 65 1008.4
20260508191303 18 192 0.0 0.0 0.00 0.00 0.00 68 1008.5
20260508190804 18 192 0.0 0.0 0.00 0.00 0.00 69 1008.5
20260508184803 17 163 0.0 0.0 0.00 0.00 0.00 70 1008.5
20260508184303 17 163 0.0 0.0 0.00 0.00 0.00 71 1008.6
20260508183803 17 163 0.0 0.0 0.00 0.00 0.00 70 1008.5
20260508183303 17 163 0.0 0.0 0.00 0.00 0.00 70 1008.4
20260508181803 17 163 0.0 0.0 0.00 0.00 0.00 70 1008.4
20260508181303 17 163 0.0 0.0 0.00 0.00 0.00 70 1008.3
20260508180804 17 163 0.0 0.0 0.00 0.00 0.00 70 1008.3
20260508174804 17 164 0.0 0.0 0.00 0.00 0.00 71 1008.5
20260508174304 17 166 0.0 0.0 0.00 0.00 0.00 69 1008.5
20260508173803 17 161 0.0 0.0 0.00 0.00 0.00 70 1008.5
20260508173303 17 161 0.0 4.8 0.00 0.00 0.00 69 1008.6
20260508171803 16 163 0.0 3.2 0.00 0.00 0.00 71 1008.7
20260508171303 16 152 0.0 0.0 0.00 0.00 0.00 70 1008.8
20260508170803 16 180 0.0 0.0 0.00 0.00 0.00 72 1008.9
20260508170303 15 180 0.0 0.0 0.00 0.00 0.00 73 1009.1
20260508164804 16 180 0.0 0.0 0.00 0.00 0.00 71 1009.5
20260508164304 15 180 0.0 0.0 0.00 0.00 0.00 72 1009.5
20260508163304 15 180 0.0 0.0 0.00 0.00 0.00 72 1009.5
20260508160804 15 180 0.0 0.0 0.00 0.00 0.00 75 1009.9
20260508160303 15 180 0.0 0.0 0.00 0.00 0.00 73 1010.0
20260508154803 15 180 0.0 0.0 0.00 0.00 0.00 74 1010.1
20260508154303 15 180 0.0 0.0 0.00 0.00 0.00 74 1010.3
20260508153803 15 180 0.0 0.0 0.00 0.00 0.00 74 1010.3
20260508153303 14 180 0.0 0.0 0.00 0.00 0.00 75 1010.3
20260508151804 14 180 0.0 0.0 0.00 0.00 0.00 75 1010.3
20260508151303 13 180 0.0 0.0 0.00 0.00 0.00 76 1010.4
20260508150304 13 180 0.0 0.0 0.00 0.00 0.00 75 1010.3
20260508144304 13 181 0.0 0.0 0.00 0.00 0.00 76 1010.2
20260508143803 13 181 0.0 0.0 0.00 0.00 0.00 76 1010.3
20260508143303 13 181 0.0 0.0 0.00 0.00 0.00 76 1010.2
20260508141802 13 142 0.0 0.0 0.00 0.00 0.00 76 1010.4
20260508141302 13 142 0.0 0.0 0.00 0.00 0.00 77 1010.4
20260508140802 13 142 0.0 0.0 0.00 0.00 0.00 76 1010.4
20260508134802 12 142 0.0 0.0 0.00 0.00 0.00 79 1010.6
20260508134302 12 142 0.0 0.0 0.00 0.00 0.00 80 1010.7
20260508133802 12 142 0.0 0.0 0.00 0.00 0.00 80 1010.8
20260508133302 12 142 0.0 0.0 0.00 0.00 0.00 80 1010.9
20260508131802 11 142 0.0 0.0 0.00 0.00 0.00 80 1010.6
20260508131302 11 142 0.0 0.0 0.00 0.00 0.00 82 1010.5
20260508130802 11 142 0.0 0.0 0.00 0.00 0.00 80 1010.5
20260508130302 11 142 0.0 0.0 0.00 0.00 0.00 80 1010.5
20260508124802 11 142 0.0 0.0 0.00 0.00 0.00 80 1010.4
20260508124302 11 142 0.0 0.0 0.00 0.00 0.00 79 1010.4
20260508123802 11 142 0.0 0.0 0.00 0.00 0.00 81 1010.4
20260508121302 10 173 0.0 0.0 0.00 0.00 0.00 81 1010.2
20260508120802 10 171 0.0 0.0 0.00 0.00 0.00 80 1010.1
20260508120302 10 161 0.0 0.0 0.00 0.00 0.00 80 1009.9
20260508114802 10 157 0.0 0.0 0.00 0.00 0.00 82 1009.9
20260508114302 9 157 0.0 0.0 0.00 0.00 0.00 82 1009.9
20260508113802 9 157 0.0 0.0 0.00 0.00 0.00 82 1009.9
20260508113303 9 157 0.0 0.0 0.00 0.00 0.00 82 1009.9
20260508111302 9 157 0.0 0.0 0.00 0.00 0.00 82 1009.8
20260508110802 9 157 0.0 0.0 0.00 0.00 0.00 82 1009.8
20260508110302 9 157 0.0 0.0 0.00 0.00 0.00 82 1009.8
20260508104802 9 157 0.0 0.0 0.00 0.00 0.00 81 1009.7
20260508104302 9 157 0.0 0.0 0.00 0.00 0.00 82 1009.6
20260508103802 9 157 0.0 0.0 0.00 0.00 0.00 82 1009.8
20260508103302 9 157 0.0 0.0 0.00 0.00 0.00 82 1009.7
20260508101802 9 157 0.0 0.0 0.00 0.00 0.00 82 1009.7
20260508101302 10 157 0.0 0.0 0.00 0.00 0.00 82 1009.7
20260508100802 10 157 0.0 0.0 0.00 0.00 0.00 81 1009.7
20260508100302 10 157 0.0 0.0 0.00 0.00 0.00 81 1009.7
20260508094802 10 157 0.0 0.0 0.00 0.00 0.00 81 1009.7
20260508094302 10 157 0.0 0.0 0.00 0.00 0.00 81 1009.8
20260508093802 10 158 0.0 0.0 0.00 0.00 0.00 81 1009.8
20260508093302 10 158 0.0 0.0 0.00 0.00 0.00 82 1009.8